Frederick, MD

1:52 PM EDT on April 29, 2017 (GMT -0400)
Frederick Municipal

Weather History for KFDK - March, 2013

Change the Weather History Date:

Wednesday, March 13, 2013

  Actual Average (KHGR) Record (KHGR)
Temperature  
Mean Temperature 40 °F -  
Max Temperature 48 °F 46 °F 80 °F (2006)
Min Temperature 32 °F 29 °F 14 °F (2014)
Degree Days  
Heating Degree Days 25    
Moisture  
Dew Point 27 °F    
Average Humidity 68    
Maximum Humidity 93    
Minimum Humidity 37    
Precipitation  
Precipitation 0.00 in - - ()
Sea Level Pressure  
Sea Level Pressure 29.99 in    
Wind  
Wind Speed 9 mph (WNW)    
Max Wind Speed 21 mph    
Max Gust Speed 26 mph    
Visibility 10 miles    
Events      
Averages and records for this station are not official NWS values.
T = Trace of Precipitation, MM = Missing Value Source: NWS Daily Summary

Daily Weather History Graph

Daily Weather History Graph

Search for Another Location

Airport or City:

Trip Planner

Search our weather history database for the weather conditions in past years. The results will help you decide how hot, cold, wet, or windy it might be!

Date:

Astronomy

Mar. 13, 2013 Rise Set
Actual Time 7:23 AM EDT 7:14 PM EDT
Civil Twilight 6:56 AM EDT 7:41 PM EDT
Nautical Twilight 6:25 AM EDT 8:12 PM EDT
Astronomical Twilight 5:54 AM EDT 8:44 PM EDT
Moon 8:02 AM EDT (3/13) 9:28 PM EDT (3/13)
Length of Visible Light 12h 44m
Length of Day
11h 50m
Waxing Crescent, 4% of the Moon is Illuminated
Mar 13
Waxing Crescent
Mar 19
First Quarter
Mar 27
Full
Apr 3
Last Quarter
Apr 10
New

Hourly Weather History & Observations

Time (EDT) Temp. Windchill Dew Point Humidity Pressure Visibility Wind Dir Wind Speed Gust Speed Precip Events Conditions
12:00 AM 41.0 °F 34.3 °F 30.2 °F 65% 30.00 in 10.0 mi NW 11.5 mph - N/A   Clear
12:20 AM 41.0 °F 35.2 °F 30.2 °F 65% 30.00 in 10.0 mi NW 9.2 mph - N/A   Scattered Clouds
12:40 AM 41.0 °F 35.2 °F 30.2 °F 65% 29.99 in 10.0 mi WNW 9.2 mph - N/A   Mostly Cloudy
1:00 AM 41.0 °F 37.1 °F 30.2 °F 65% 29.99 in 10.0 mi NW 5.8 mph 17.3 mph N/A   Overcast
1:40 AM 39.2 °F 33.6 °F 30.2 °F 70% 29.99 in 10.0 mi NW 8.1 mph - N/A   Overcast
2:00 AM 39.2 °F 33.0 °F 28.4 °F 65% 29.99 in 10.0 mi WNW 9.2 mph - N/A   Mostly Cloudy
2:20 AM 37.4 °F 29.3 °F 28.4 °F 70% 29.99 in 10.0 mi WNW 12.7 mph - N/A   Scattered Clouds
2:40 AM 37.4 °F 30.8 °F 28.4 °F 70% 29.98 in 10.0 mi NW 9.2 mph - N/A   Scattered Clouds
3:00 AM 39.2 °F 32.5 °F 28.4 °F 65% 29.98 in 10.0 mi NW 10.4 mph 19.6 mph N/A   Scattered Clouds
3:20 AM 37.4 °F 32.8 °F 26.6 °F 65% 29.97 in 10.0 mi West 5.8 mph - N/A   Clear
3:40 AM 35.6 °F 32.8 °F 28.4 °F 75% 29.97 in 10.0 mi West 3.5 mph - N/A   Clear
4:00 AM 35.6 °F 31.7 °F 26.6 °F 70% 29.97 in 10.0 mi West 4.6 mph - N/A   Clear
4:20 AM 37.4 °F 33.8 °F 28.4 °F 70% 29.97 in 10.0 mi WNW 4.6 mph - N/A   Clear
4:40 AM 35.6 °F - 26.6 °F 70% 29.97 in 10.0 mi Calm Calm - N/A   Clear
5:00 AM 35.6 °F 32.8 °F 26.6 °F 70% 29.96 in 10.0 mi North 3.5 mph - N/A   Clear
5:20 AM 33.8 °F - 28.4 °F 81% 29.96 in 10.0 mi Calm Calm - N/A   Clear
5:40 AM 33.8 °F - 28.4 °F 81% 29.96 in 10.0 mi Calm Calm - N/A   Clear
6:00 AM 32.0 °F 28.7 °F 30.2 °F 93% 29.97 in 10.0 mi SSW 3.5 mph - N/A   Clear
6:20 AM 32.0 °F 28.7 °F 30.2 °F 93% 29.97 in 10.0 mi SSW 3.5 mph - N/A   Clear
6:40 AM 32.0 °F - 28.4 °F 87% 29.98 in 10.0 mi Calm Calm - N/A   Clear
6:45 AM 32.0 °F 27.5 °F 30.2 °F 93% 29.98 in 10.0 mi South 4.6 mph - N/A   Clear
6:51 AM 33.8 °F 30.8 °F 28.4 °F 81% 29.98 in 10.0 mi SSW 3.5 mph - N/A   Clear
7:55 AM 32.0 °F 28.7 °F 30.2 °F 93% 29.99 in 10.0 mi SSE 3.5 mph - N/A   Mostly Cloudy
8:55 AM 35.6 °F - 32.0 °F 87% 29.99 in 10.0 mi Calm Calm - N/A   Clear
9:50 AM 42.8 °F 38.6 °F 30.2 °F 61% 29.99 in 10.0 mi SW 6.9 mph - N/A   Clear
10:50 AM 44.6 °F 39.2 °F 30.2 °F 57% 29.97 in 10.0 mi West 10.4 mph 17.3 mph N/A   Mostly Cloudy
11:45 AM 46.4 °F 41.5 °F 30.2 °F 53% 29.96 in 10.0 mi West 10.4 mph 19.6 mph N/A   Mostly Cloudy
12:45 PM 44.6 °F 37.8 °F 28.4 °F 53% 29.96 in 10.0 mi West 15.0 mph 26.5 mph N/A   Mostly Cloudy
1:51 PM 46.4 °F 39.5 °F 24.8 °F 43% 29.94 in 10.0 mi WNW 17.3 mph 23.0 mph N/A   Mostly Cloudy
2:47 PM 46.4 °F 38.7 °F 21.2 °F 37% 29.94 in 10.0 mi NW 20.7 mph 25.3 mph N/A   Overcast
3:50 PM 48.2 °F - 24.8 °F 40% 29.94 in 10.0 mi West 18.4 mph 25.3 mph N/A   Mostly Cloudy
4:47 PM 46.4 °F 39.2 °F 24.8 °F 43% 29.94 in 10.0 mi WNW 18.4 mph 25.3 mph N/A   Mostly Cloudy
5:46 PM 42.8 °F 36.6 °F 28.4 °F 57% 29.98 in 10.0 mi NW 11.5 mph 23.0 mph N/A   Mostly Cloudy
9:05 PM 35.6 °F 27.1 °F 21.2 °F 56% 30.06 in 10.0 mi WNW 12.7 mph 20.7 mph N/A   Clear
9:25 PM 35.6 °F 25.2 °F 21.2 °F 56% 30.06 in 10.0 mi West 18.4 mph 23.0 mph N/A   Scattered Clouds
9:45 PM 33.8 °F 22.5 °F 23.0 °F 65% 30.07 in 10.0 mi West 19.6 mph 24.2 mph N/A   Scattered Clouds
10:05 PM 33.8 °F 27.0 °F 23.0 °F 65% 30.08 in 10.0 mi West 8.1 mph 23.0 mph N/A   Scattered Clouds
10:25 PM 32.0 °F 23.0 °F 23.0 °F 69% 30.08 in 10.0 mi WNW 11.5 mph 25.3 mph N/A   Scattered Clouds
10:45 PM 32.0 °F 24.8 °F 23.0 °F 69% 30.08 in 10.0 mi West 8.1 mph - N/A   Scattered Clouds
11:05 PM 32.0 °F 23.0 °F 23.0 °F 69% 30.09 in 10.0 mi WNW 11.5 mph 19.6 mph N/A   Clear
11:25 PM 32.0 °F 24.8 °F 23.0 °F 69% 30.09 in 10.0 mi WNW 8.1 mph 21.9 mph N/A   Clear